Location: Paddlesworth
(51.1000°N, 1.1333°E)
Time: 08:32:52
(UTC+00:00)

Cosmos 2278 Rocket - Pass Details

Date: 11 May 2021
Orbit: 841 x 845 km, 71.0° (Epoch: 20 June)

Event Time Altitude Azimuth Distance (km) Brightness Sun altitude
Rises 20:18:10 0° 171° (S) 3,384 4.9 -6.5°
Reaches altitude 10° 20:20:56 10° 159° (SSE) 2,454 4.1 -6.9°
Maximum altitude 20:25:33 27° 104° (ESE) 1,577 3.2 -7.4°
Drops below altitude 10° 20:30:11 10° 49° (NE) 2,469 4.6 -8.0°
Sets 20:32:58 0° 37° (NE) 3,409 5.4 -8.3°
